Weather History for PAIN - December, 2013

Change the Weather History Date:

Saturday, December 7, 2013

  Actual Average Record
Temperature  
Mean Temperature 24 °F -  
Max Temperature 30 °F 9 °F 41 °F (2005)
Min Temperature 17 °F -6 °F -47 °F (1975)
Degree Days  
Heating Degree Days 42    
Moisture  
Dew Point 24 °F    
Average Humidity 98    
Maximum Humidity 100    
Minimum Humidity 93    
Precipitation  
Precipitation 0.00 in - - ()
Sea Level Pressure  
Sea Level Pressure 30.37 in    
Wind  
Wind Speed 1 mph (SW)    
Max Wind Speed 5 mph    
Max Gust Speed -    
Visibility 10 miles    
Events      
Averages and records for this station are not official NWS values.
T = Trace of Precipitation, MM = Missing Value Source: NWS Daily Summary

Daily Weather History Graph

Daily Weather History Graph

Search for Another Location

Airport or City:

Trip Planner

Search our weather history database for the weather conditions in past years. The results will help you decide how hot, cold, wet, or windy it might be!

Date:

Astronomy

Dec. 07, 2013 Rise Set
Actual Time 10:24 AM AKST 3:10 PM AKST
Civil Twilight 9:12 AM AKST 4:22 PM AKST
Nautical Twilight 8:06 AM AKST 5:28 PM AKST
Astronomical Twilight 7:07 AM AKST 6:26 PM AKST
Moon 12:41 PM AKST (12/7) 10:45 PM AKST (12/7)
Length of Visible Light 7h 10m
Length of Day
4h 45m
Waxing Crescent, 31% of the Moon is Illuminated
Dec 7
Waxing Crescent
Dec 9
First Quarter
Dec 17
Full
Dec 25
Last Quarter
Jan 1
New

Hourly Weather History & Observations

Time (AKST) Temp. Windchill Dew Point Humidity Pressure Visibility Wind Dir Wind Speed Gust Speed Precip Events Conditions
12:16 AM 30.2 °F - 28.4 °F 93% 30.42 in 10.0 mi Calm Calm - N/A   Mostly Cloudy
12:36 AM 28.4 °F - 26.6 °F 93% 30.41 in 10.0 mi Calm Calm - N/A   Overcast
12:56 AM 28.4 °F - 28.4 °F 100% 30.41 in 10.0 mi Calm Calm - N/A   Overcast
1:16 AM 28.4 °F - 28.4 °F 100% 30.41 in 10.0 mi Calm Calm - N/A   Mostly Cloudy
1:36 AM 28.4 °F - 28.4 °F 100% 30.41 in 10.0 mi Calm Calm - N/A   Partly Cloudy
1:56 AM 28.4 °F 24.6 °F 28.4 °F 100% 30.40 in 10.0 mi SSW 3.5 mph - N/A   Clear
2:16 AM 26.6 °F - 26.6 °F 100% 30.41 in 10.0 mi Calm Calm - N/A   Clear
2:36 AM 24.8 °F - 24.8 °F 100% 30.41 in 10.0 mi Calm Calm - N/A   Clear
2:56 AM 24.8 °F - 24.8 °F 100% 30.40 in 10.0 mi Calm Calm - N/A   Clear
3:16 AM 24.8 °F 20.5 °F 24.8 °F 100% 30.39 in 10.0 mi SSW 3.5 mph - N/A   Clear
3:36 AM 24.8 °F 19.1 °F 24.8 °F 100% 30.38 in 10.0 mi WSW 4.6 mph - N/A   Clear
3:56 AM 24.8 °F - 24.8 °F 100% 30.38 in 10.0 mi Calm Calm - N/A   Clear
4:16 AM 24.8 °F - 24.8 °F 100% 30.37 in 10.0 mi Calm Calm - N/A   Clear
4:36 AM 23.0 °F 18.4 °F 23.0 °F 100% 30.38 in 10.0 mi SW 3.5 mph - N/A   Clear
4:56 AM 23.0 °F - 23.0 °F 100% 30.38 in 10.0 mi Calm Calm - N/A   Mostly Cloudy
5:16 AM 24.8 °F 20.5 °F 24.8 °F 100% 30.38 in 10.0 mi SW 3.5 mph - N/A   Overcast
5:36 AM 26.6 °F - 26.6 °F 100% 30.38 in 10.0 mi Calm Calm - N/A   Overcast
5:56 AM 28.4 °F 23.3 °F 28.4 °F 100% 30.38 in 10.0 mi SW 4.6 mph - N/A   Overcast
6:16 AM 28.4 °F - 28.4 °F 100% 30.39 in 10.0 mi Calm Calm - N/A   Overcast
6:36 AM 28.4 °F - 28.4 °F 100% 30.39 in 10.0 mi Calm Calm - N/A   Overcast
6:56 AM 26.6 °F - 26.6 °F 100% 30.39 in 10.0 mi Calm Calm - N/A   Overcast
7:16 AM 28.4 °F - 28.4 °F 100% 30.40 in 10.0 mi Calm Calm - N/A   Overcast
7:36 AM 28.4 °F - 28.4 °F 100% 30.40 in 10.0 mi Calm Calm - N/A   Overcast
7:56 AM 28.4 °F - 28.4 °F 100% 30.39 in 10.0 mi Calm Calm - N/A   Overcast
8:16 AM 28.4 °F - 28.4 °F 100% 30.39 in 10.0 mi Calm Calm - N/A   Overcast
8:36 AM 28.4 °F - 28.4 °F 100% 30.39 in 10.0 mi Calm Calm - N/A   Overcast
8:56 AM 26.6 °F - 26.6 °F 100% 30.39 in 10.0 mi Calm Calm - N/A   Overcast
9:16 AM 26.6 °F - 26.6 °F 100% 30.38 in 10.0 mi Calm Calm - N/A   Overcast
9:36 AM 28.4 °F - 26.6 °F 93% 30.38 in 10.0 mi Calm Calm - N/A   Overcast
9:56 AM 28.4 °F - 26.6 °F 93% 30.38 in 10.0 mi Calm Calm - N/A   Overcast
10:16 AM 28.4 °F - 26.6 °F 93% 30.38 in 10.0 mi Calm Calm - N/A   Overcast
10:36 AM 28.4 °F - 28.4 °F 100% 30.38 in 10.0 mi Calm Calm - N/A   Overcast
10:56 AM 28.4 °F - 28.4 °F 100% 30.38 in 10.0 mi Calm Calm - N/A   Overcast
11:16 AM 30.2 °F 26.7 °F 30.2 °F 100% 30.37 in 10.0 mi West 3.5 mph - N/A   Overcast
11:36 AM 30.2 °F - 30.2 °F 100% 30.37 in 10.0 mi Calm Calm - N/A   Overcast
11:56 AM 30.2 °F - 28.4 °F 93% 30.37 in 10.0 mi Calm Calm - N/A   Overcast
12:16 PM 30.2 °F - 30.2 °F 100% 30.37 in 10.0 mi Calm Calm - N/A   Overcast
12:36 PM 28.4 °F - 28.4 °F 100% 30.37 in 10.0 mi Calm Calm - N/A   Overcast
12:56 PM 28.4 °F - 26.6 °F 93% 30.37 in 10.0 mi Calm Calm - N/A   Scattered Clouds
1:16 PM 28.4 °F - 28.4 °F 100% 30.37 in 10.0 mi Calm Calm - N/A   Clear
1:36 PM 28.4 °F 24.6 °F 28.4 °F 100% 30.37 in 10.0 mi SW 3.5 mph - N/A   Clear
1:56 PM 28.4 °F - 26.6 °F 93% 30.36 in 10.0 mi Calm Calm - N/A   Clear
2:16 PM 26.6 °F 22.6 °F 26.6 °F 100% 30.36 in 10.0 mi SW 3.5 mph - N/A   Clear
2:36 PM 26.6 °F - 26.6 °F 100% 30.35 in 10.0 mi Calm Calm - N/A   Clear
2:56 PM 26.6 °F 22.6 °F 24.8 °F 93% 30.35 in 10.0 mi WSW 3.5 mph - N/A   Clear
3:16 PM 24.8 °F - 24.8 °F 100% 30.35 in 10.0 mi Calm Calm - N/A   Clear
3:36 PM 24.8 °F - 24.8 °F 100% 30.35 in 10.0 mi Calm Calm - N/A   Clear
3:56 PM 24.8 °F 20.5 °F 24.8 °F 100% 30.35 in 10.0 mi SSW 3.5 mph - N/A   Clear
4:16 PM 26.6 °F 22.6 °F 24.8 °F 93% 30.35 in 10.0 mi WSW 3.5 mph - N/A   Clear
4:36 PM 26.6 °F - 24.8 °F 93% 30.34 in 10.0 mi Calm Calm - N/A   Clear
4:56 PM 24.8 °F - 24.8 °F 100% 30.34 in 10.0 mi Calm Calm - N/A   Clear
5:16 PM 24.8 °F - 23.0 °F 93% 30.35 in 10.0 mi Calm Calm - N/A   Clear
5:36 PM 23.0 °F - 23.0 °F 100% 30.35 in 10.0 mi Calm Calm - N/A   Clear
5:56 PM 23.0 °F - 23.0 °F 100% 30.35 in 10.0 mi Calm Calm - N/A   Clear
6:16 PM 19.4 °F - 19.4 °F 100% 30.35 in 10.0 mi Calm Calm - N/A   Clear
6:36 PM 19.4 °F - 19.4 °F 100% 30.35 in 10.0 mi Calm Calm - N/A   Clear
6:56 PM 21.2 °F - 21.2 °F 100% 30.34 in 10.0 mi Calm Calm - N/A   Clear
7:16 PM 21.2 °F - 19.4 °F 93% 30.34 in 10.0 mi Calm Calm - N/A   Clear
7:36 PM 19.4 °F - 19.4 °F 100% 30.34 in 10.0 mi Calm Calm - N/A   Clear
7:56 PM 19.4 °F - 19.4 °F 100% 30.34 in 10.0 mi Calm Calm - N/A   Clear
8:16 PM 17.6 °F - 17.6 °F 100% 30.33 in 10.0 mi Calm Calm - N/A   Clear
8:36 PM 17.6 °F - 15.8 °F 93% 30.34 in 10.0 mi Calm Calm - N/A   Clear
8:56 PM 17.6 °F - 17.6 °F 100% 30.33 in 10.0 mi Calm Calm - N/A   Clear
9:16 PM 17.6 °F - 17.6 °F 100% 30.33 in 10.0 mi Calm Calm - N/A   Clear
9:36 PM 17.6 °F - 17.6 °F 100% 30.33 in 10.0 mi Calm Calm - N/A   Clear
9:56 PM 17.6 °F 12.3 °F 17.6 °F 100% 30.32 in 10.0 mi SW 3.5 mph - N/A   Clear
10:16 PM 17.6 °F - 17.6 °F 100% 30.33 in 10.0 mi Calm Calm - N/A   Clear
10:36 PM 17.6 °F - 15.8 °F 93% 30.33 in 10.0 mi Calm Calm - N/A   Clear
10:56 PM 17.6 °F - 15.8 °F 93% 30.33 in 10.0 mi Calm Calm - N/A   Clear
11:16 PM 17.6 °F - 17.6 °F 100% 30.35 in 10.0 mi Calm Calm - N/A   Clear
11:36 PM 17.6 °F - 15.8 °F 93% 30.35 in 10.0 mi Calm Calm - N/A   Scattered Clouds
11:56 PM 17.6 °F - 15.8 °F 93% 30.35 in 10.0 mi Calm Calm - N/A   Overcast